Time,TemperatureF,DewpointF,PressureIn,WindDirection,WindDirectionDegrees,WindSpeedMPH,WindSpeedGustMPH,Humidity,HourlyPrecipIn,Conditions,Clouds,dailyrainin,SoftwareType,DateUTC
2013-03-17 00:00:00,69.0,-99.9,30.14,SE,130,10.0,11.0,-999,-99.99,,,-99.99,,2013-03-17 04:00:00,
2013-03-17 00:23:00,69.0,-99.9,30.14,SE,130,10.0,11.0,-999,-99.99,,,-99.99,,2013-03-17 04:23:00,
2013-03-17 00:33:00,69.0,-99.9,30.14,SE,130,10.0,11.0,-999,-99.99,,,-99.99,,2013-03-17 04:33:00,
2013-03-17 00:43:00,69.0,-99.9,30.14,SE,130,10.0,11.0,-999,-99.99,,,-99.99,,2013-03-17 04:43:00,
2013-03-17 00:53:00,69.0,-99.9,30.14,SE,130,10.0,11.0,-999,-99.99,,,-99.99,,2013-03-17 04:53:00,
2013-03-17 01:00:00,70.0,-99.9,30.13,SE,130,13.0,14.0,-999,-99.99,,,-99.99,,2013-03-17 05:00:00,
2013-03-17 01:22:00,70.0,-99.9,30.13,SE,130,13.0,14.0,-999,-99.99,,,-99.99,,2013-03-17 05:22:00,
2013-03-17 01:32:00,70.0,-99.9,30.13,SE,130,13.0,14.0,-999,-99.99,,,-99.99,,2013-03-17 05:32:00,
2013-03-17 01:43:00,70.0,-99.9,30.13,SE,130,13.0,14.0,-999,-99.99,,,-99.99,,2013-03-17 05:43:00,
2013-03-17 01:52:00,70.0,-99.9,30.13,SE,130,13.0,14.0,-999,-99.99,,,-99.99,,2013-03-17 05:52:00,
2013-03-17 02:00:00,70.0,-99.9,30.11,SE,130,13.0,14.0,-999,-99.99,,,-99.99,,2013-03-17 06:00:00,
2013-03-17 02:22:00,70.0,-99.9,30.11,SE,130,13.0,14.0,-999,-99.99,,,-99.99,,2013-03-17 06:22:00,
2013-03-17 02:32:00,70.0,-99.9,30.11,SE,130,13.0,14.0,-999,-99.99,,,-99.99,,2013-03-17 06:32:00,
2013-03-17 02:42:00,70.0,-99.9,30.11,SE,130,13.0,14.0,-999,-99.99,,,-99.99,,2013-03-17 06:42:00,
2013-03-17 02:53:00,70.0,-99.9,30.11,SE,130,13.0,14.0,-999,-99.99,,,-99.99,,2013-03-17 06:53:00,
2013-03-17 03:00:00,69.0,-99.9,30.10,SE,130,9.0,11.0,-999,-99.99,,,-99.99,,2013-03-17 07:00:00,
2013-03-17 03:22:00,69.0,-99.9,30.10,SE,130,9.0,11.0,-999,-99.99,,,-99.99,,2013-03-17 07:22:00,
2013-03-17 03:32:00,69.0,-99.9,30.10,SE,130,9.0,11.0,-999,-99.99,,,-99.99,,2013-03-17 07:32:00,
2013-03-17 03:42:00,69.0,-99.9,30.10,SE,130,9.0,11.0,-999,-99.99,,,-99.99,,2013-03-17 07:42:00,
2013-03-17 03:52:00,69.0,-99.9,30.10,SE,130,9.0,11.0,-999,-99.99,,,-99.99,,2013-03-17 07:52:00,
2013-03-17 04:00:00,69.0,-99.9,30.08,SE,140,8.0,10.0,-999,-99.99,,,-99.99,,2013-03-17 08:00:00,
2013-03-17 04:22:00,69.0,-99.9,30.08,SE,140,8.0,10.0,-999,-99.99,,,-99.99,,2013-03-17 08:22:00,
2013-03-17 04:33:00,69.0,-99.9,30.08,SE,140,8.0,10.0,-999,-99.99,,,-99.99,,2013-03-17 08:33:00,
2013-03-17 04:42:00,69.0,-99.9,30.08,SE,140,8.0,10.0,-999,-99.99,,,-99.99,,2013-03-17 08:42:00,
2013-03-17 04:52:00,69.0,-99.9,30.08,SE,140,8.0,10.0,-999,-99.99,,,-99.99,,2013-03-17 08:52:00,
2013-03-17 05:00:00,70.0,-99.9,30.07,SSE,150,10.0,11.0,-999,-99.99,,,-99.99,,2013-03-17 09:00:00,
2013-03-17 05:23:00,70.0,-99.9,30.07,SSE,150,10.0,11.0,-999,-99.99,,,-99.99,,2013-03-17 09:23:00,
2013-03-17 05:33:00,70.0,-99.9,30.07,SSE,150,10.0,11.0,-999,-99.99,,,-99.99,,2013-03-17 09:33:00,
2013-03-17 05:43:00,70.0,-99.9,30.07,SSE,150,10.0,11.0,-999,-99.99,,,-99.99,,2013-03-17 09:43:00,
2013-03-17 05:53:00,70.0,-99.9,30.07,SSE,150,10.0,11.0,-999,-99.99,,,-99.99,,2013-03-17 09:53:00,
2013-03-17 06:00:00,70.0,-99.9,30.08,SE,130,10.0,11.0,-999,-99.99,,,-99.99,,2013-03-17 10:00:00,
2013-03-17 06:23:00,70.0,-99.9,30.08,SE,130,10.0,11.0,-999,-99.99,,,-99.99,,2013-03-17 10:23:00,
2013-03-17 06:33:00,70.0,-99.9,30.08,SE,130,10.0,11.0,-999,-99.99,,,-99.99,,2013-03-17 10:33:00,
2013-03-17 06:42:00,70.0,-99.9,30.08,SE,130,10.0,11.0,-999,-99.99,,,-99.99,,2013-03-17 10:42:00,
2013-03-17 06:53:00,70.0,-99.9,30.08,SE,130,10.0,11.0,-999,-99.99,,,-99.99,,2013-03-17 10:53:00,
2013-03-17 07:00:00,70.0,-99.9,30.09,SE,140,11.0,13.0,-999,-99.99,,,-99.99,,2013-03-17 11:00:00,
2013-03-17 07:23:00,70.0,-99.9,30.09,SE,140,11.0,13.0,-999,-99.99,,,-99.99,,2013-03-17 11:23:00,
2013-03-17 07:32:00,70.0,-99.9,30.09,SE,140,11.0,13.0,-999,-99.99,,,-99.99,,2013-03-17 11:32:00,
2013-03-17 07:43:00,70.0,-99.9,30.09,SE,140,11.0,13.0,-999,-99.99,,,-99.99,,2013-03-17 11:43:00,
2013-03-17 07:52:00,70.0,-99.9,30.09,SE,140,11.0,13.0,-999,-99.99,,,-99.99,,2013-03-17 11:52:00,
2013-03-17 08:00:00,70.0,-99.9,30.10,SSE,160,14.0,15.0,-999,-99.99,,,-99.99,,2013-03-17 12:00:00,
2013-03-17 08:22:00,70.0,-99.9,30.10,SSE,160,14.0,15.0,-999,-99.99,,,-99.99,,2013-03-17 12:22:00,
2013-03-17 08:33:00,70.0,-99.9,30.10,SSE,160,14.0,15.0,-999,-99.99,,,-99.99,,2013-03-17 12:33:00,
2013-03-17 08:43:00,70.0,-99.9,30.10,SSE,160,14.0,15.0,-999,-99.99,,,-99.99,,2013-03-17 12:43:00,
2013-03-17 08:52:00,70.0,-99.9,30.10,SSE,160,14.0,15.0,-999,-99.99,,,-99.99,,2013-03-17 12:52:00,
2013-03-17 09:00:00,70.0,-99.9,30.13,SE,140,8.0,9.0,-999,-99.99,,,-99.99,,2013-03-17 13:00:00,
2013-03-17 09:22:00,70.0,-99.9,30.13,SE,140,8.0,9.0,-999,-99.99,,,-99.99,,2013-03-17 13:22:00,
2013-03-17 09:33:00,70.0,-99.9,30.13,SE,140,8.0,9.0,-999,-99.99,,,-99.99,,2013-03-17 13:33:00,
2013-03-17 09:43:00,70.0,-99.9,30.13,SE,140,8.0,9.0,-999,-99.99,,,-99.99,,2013-03-17 13:43:00,
2013-03-17 09:53:00,70.0,-99.9,30.13,SE,140,8.0,9.0,-999,-99.99,,,-99.99,,2013-03-17 13:53:00,
2013-03-17 10:00:00,71.0,-99.9,30.14,ESE,120,10.0,11.0,-999,-99.99,,,-99.99,,2013-03-17 14:00:00,
2013-03-17 10:23:00,71.0,-99.9,30.14,ESE,120,10.0,11.0,-999,-99.99,,,-99.99,,2013-03-17 14:23:00,
2013-03-17 10:33:00,71.0,-99.9,30.14,ESE,120,10.0,11.0,-999,-99.99,,,-99.99,,2013-03-17 14:33:00,
2013-03-17 10:43:00,71.0,-99.9,30.14,ESE,120,10.0,11.0,-999,-99.99,,,-99.99,,2013-03-17 14:43:00,
2013-03-17 10:53:00,71.0,-99.9,30.14,ESE,120,10.0,11.0,-999,-99.99,,,-99.99,,2013-03-17 14:53:00,
2013-03-17 11:00:00,71.0,-99.9,30.13,SSE,150,13.0,14.0,-999,-99.99,,,-99.99,,2013-03-17 15:00:00,
2013-03-17 11:23:00,71.0,-99.9,30.13,SSE,150,13.0,14.0,-999,-99.99,,,-99.99,,2013-03-17 15:23:00,
2013-03-17 11:33:00,71.0,-99.9,30.13,SSE,150,13.0,14.0,-999,-99.99,,,-99.99,,2013-03-17 15:33:00,
2013-03-17 11:43:00,71.0,-99.9,30.13,SSE,150,13.0,14.0,-999,-99.99,,,-99.99,,2013-03-17 15:43:00,
2013-03-17 11:53:00,71.0,-99.9,30.13,SSE,150,13.0,14.0,-999,-99.99,,,-99.99,,2013-03-17 15:53:00,
2013-03-17 12:00:00,71.0,-99.9,30.13,SSE,150,13.0,14.0,-999,-99.99,,,-99.99,,2013-03-17 16:00:00,
2013-03-17 12:34:00,71.0,-99.9,30.13,SSE,150,13.0,14.0,-999,-99.99,,,-99.99,,2013-03-17 16:34:00,
2013-03-17 12:43:00,71.0,-99.9,30.13,SSE,150,13.0,14.0,-999,-99.99,,,-99.99,,2013-03-17 16:43:00,
2013-03-17 12:53:00,71.0,-99.9,30.13,SSE,150,13.0,14.0,-999,-99.99,,,-99.99,,2013-03-17 16:53:00,
2013-03-17 13:00:00,72.0,-99.9,30.13,SSE,160,9.0,10.0,-999,-99.99,,,-99.99,,2013-03-17 17:00:00,
2013-03-17 13:22:00,72.0,-99.9,30.13,SSE,160,9.0,10.0,-999,-99.99,,,-99.99,,2013-03-17 17:22:00,
2013-03-17 13:33:00,72.0,-99.9,30.13,SSE,160,9.0,10.0,-999,-99.99,,,-99.99,,2013-03-17 17:33:00,
2013-03-17 13:42:00,72.0,-99.9,30.13,SSE,160,9.0,10.0,-999,-99.99,,,-99.99,,2013-03-17 17:42:00,
2013-03-17 13:53:00,72.0,-99.9,30.13,SSE,160,9.0,10.0,-999,-99.99,,,-99.99,,2013-03-17 17:53:00,
2013-03-17 14:00:00,72.0,-99.9,30.10,SE,140,10.0,11.0,-999,-99.99,,,-99.99,,2013-03-17 18:00:00,
2013-03-17 14:22:00,72.0,-99.9,30.10,SE,140,10.0,11.0,-999,-99.99,,,-99.99,,2013-03-17 18:22:00,
2013-03-17 14:32:00,72.0,-99.9,30.10,SE,140,10.0,11.0,-999,-99.99,,,-99.99,,2013-03-17 18:32:00,
2013-03-17 14:42:00,72.0,-99.9,30.10,SE,140,10.0,11.0,-999,-99.99,,,-99.99,,2013-03-17 18:42:00,
2013-03-17 14:52:00,72.0,-99.9,30.10,SE,140,10.0,11.0,-999,-99.99,,,-99.99,,2013-03-17 18:52:00,
2013-03-17 15:00:00,72.0,-99.9,30.06,ESE,120,10.0,10.0,-999,-99.99,,,-99.99,,2013-03-17 19:00:00,
2013-03-17 15:23:00,72.0,-99.9,30.06,ESE,120,10.0,10.0,-999,-99.99,,,-99.99,,2013-03-17 19:23:00,
2013-03-17 15:34:00,72.0,-99.9,30.06,ESE,120,10.0,10.0,-999,-99.99,,,-99.99,,2013-03-17 19:34:00,
2013-03-17 15:42:00,72.0,-99.9,30.06,ESE,120,10.0,10.0,-999,-99.99,,,-99.99,,2013-03-17 19:42:00,
2013-03-17 15:53:00,72.0,-99.9,30.06,ESE,120,10.0,10.0,-999,-99.99,,,-99.99,,2013-03-17 19:53:00,
2013-03-17 16:00:00,73.0,-99.9,30.04,SSE,150,13.0,14.0,-999,-99.99,,,-99.99,,2013-03-17 20:00:00,
2013-03-17 16:23:00,73.0,-99.9,30.04,SSE,150,13.0,14.0,-999,-99.99,,,-99.99,,2013-03-17 20:23:00,
2013-03-17 16:33:00,73.0,-99.9,30.04,SSE,150,13.0,14.0,-999,-99.99,,,-99.99,,2013-03-17 20:33:00,
2013-03-17 16:43:00,73.0,-99.9,30.04,SSE,150,13.0,14.0,-999,-99.99,,,-99.99,,2013-03-17 20:43:00,
2013-03-17 16:52:00,73.0,-99.9,30.04,SSE,150,13.0,14.0,-999,-99.99,,,-99.99,,2013-03-17 20:52:00,
2013-03-17 17:00:00,73.0,-99.9,30.04,SSE,150,10.0,11.0,-999,-99.99,,,-99.99,,2013-03-17 21:00:00,
2013-03-17 17:23:00,73.0,-99.9,30.04,SSE,150,10.0,11.0,-999,-99.99,,,-99.99,,2013-03-17 21:23:00,
2013-03-17 17:33:00,73.0,-99.9,30.04,SSE,150,10.0,11.0,-999,-99.99,,,-99.99,,2013-03-17 21:33:00,
2013-03-17 17:43:00,73.0,-99.9,30.04,SSE,150,10.0,11.0,-999,-99.99,,,-99.99,,2013-03-17 21:43:00,
2013-03-17 17:53:00,73.0,-99.9,30.04,SSE,150,10.0,11.0,-999,-99.99,,,-99.99,,2013-03-17 21:53:00,
2013-03-17 18:00:00,73.0,-99.9,30.05,SE,130,9.0,10.0,-999,-99.99,,,-99.99,,2013-03-17 22:00:00,
2013-03-17 18:23:00,73.0,-99.9,30.05,SE,130,9.0,10.0,-999,-99.99,,,-99.99,,2013-03-17 22:23:00,
2013-03-17 18:34:00,73.0,-99.9,30.05,SE,130,9.0,10.0,-999,-99.99,,,-99.99,,2013-03-17 22:34:00,
2013-03-17 18:42:00,73.0,-99.9,30.05,SE,130,9.0,10.0,-999,-99.99,,,-99.99,,2013-03-17 22:42:00,
2013-03-17 18:53:00,73.0,-99.9,30.05,SE,130,9.0,10.0,-999,-99.99,,,-99.99,,2013-03-17 22:53:00,
2013-03-17 19:00:00,72.0,-99.9,30.03,SE,140,11.0,13.0,-999,-99.99,,,-99.99,,2013-03-17 23:00:00,
2013-03-17 19:23:00,72.0,-99.9,30.03,SE,140,11.0,13.0,-999,-99.99,,,-99.99,,2013-03-17 23:23:00,
2013-03-17 19:33:00,72.0,-99.9,30.03,SE,140,11.0,13.0,-999,-99.99,,,-99.99,,2013-03-17 23:33:00,
2013-03-17 19:43:00,72.0,-99.9,30.03,SE,140,11.0,13.0,-999,-99.99,,,-99.99,,2013-03-17 23:43:00,
2013-03-17 19:53:00,72.0,-99.9,30.03,SE,140,11.0,13.0,-999,-99.99,,,-99.99,,2013-03-17 23:53:00,
2013-03-17 20:00:00,72.0,-99.9,30.03,ESE,120,14.0,15.0,-999,-99.99,,,-99.99,,2013-03-18 00:00:00,
2013-03-17 20:22:00,72.0,-99.9,30.03,ESE,120,14.0,15.0,-999,-99.99,,,-99.99,,2013-03-18 00:22:00,
2013-03-17 20:33:00,72.0,-99.9,30.03,ESE,120,14.0,15.0,-999,-99.99,,,-99.99,,2013-03-18 00:33:00,
2013-03-17 20:42:00,72.0,-99.9,30.03,ESE,120,14.0,15.0,-999,-99.99,,,-99.99,,2013-03-18 00:42:00,
2013-03-17 20:53:00,72.0,-99.9,30.03,ESE,120,14.0,15.0,-999,-99.99,,,-99.99,,2013-03-18 00:53:00,
2013-03-17 21:00:00,72.0,-99.9,30.04,ESE,120,9.0,10.0,-999,-99.99,,,-99.99,,2013-03-18 01:00:00,
2013-03-17 21:22:00,72.0,-99.9,30.04,ESE,120,9.0,10.0,-999,-99.99,,,-99.99,,2013-03-18 01:22:00,
2013-03-17 21:33:00,72.0,-99.9,30.04,ESE,120,9.0,10.0,-999,-99.99,,,-99.99,,2013-03-18 01:33:00,
2013-03-17 21:42:00,72.0,-99.9,30.04,ESE,120,9.0,10.0,-999,-99.99,,,-99.99,,2013-03-18 01:42:00,
2013-03-17 21:52:00,72.0,-99.9,30.04,ESE,120,9.0,10.0,-999,-99.99,,,-99.99,,2013-03-18 01:52:00,
2013-03-17 22:00:00,72.0,-99.9,30.06,SE,130,10.0,10.0,-999,-99.99,,,-99.99,,2013-03-18 02:00:00,
2013-03-17 22:22:00,72.0,-99.9,30.06,SE,130,10.0,10.0,-999,-99.99,,,-99.99,,2013-03-18 02:22:00,
2013-03-17 22:32:00,72.0,-99.9,30.06,SE,130,10.0,10.0,-999,-99.99,,,-99.99,,2013-03-18 02:32:00,
2013-03-17 22:42:00,72.0,-99.9,30.06,SE,130,10.0,10.0,-999,-99.99,,,-99.99,,2013-03-18 02:42:00,
2013-03-17 22:52:00,72.0,-99.9,30.06,SE,130,10.0,10.0,-999,-99.99,,,-99.99,,2013-03-18 02:52:00,
2013-03-17 23:00:00,72.0,-99.9,30.09,SE,140,10.0,11.0,-999,-99.99,,,-99.99,,2013-03-18 03:00:00,
2013-03-17 23:22:00,72.0,-99.9,30.09,SE,140,10.0,11.0,-999,-99.99,,,-99.99,,2013-03-18 03:22:00,
2013-03-17 23:33:00,72.0,-99.9,30.09,SE,140,10.0,11.0,-999,-99.99,,,-99.99,,2013-03-18 03:33:00,
2013-03-17 23:42:00,72.0,-99.9,30.09,SE,140,10.0,11.0,-999,-99.99,,,-99.99,,2013-03-18 03:42:00,
2013-03-17 23:53:00,72.0,-99.9,30.09,SE,140,10.0,11.0,-999,-99.99,,,-99.99,,2013-03-18 03:53:00,